"Pseudo-MPEC" for P10EwQh

Created 2018 Feb 25 21:18:04 UT using Find_Orb

Click here for an explanation of pseudo-MPECs

 
 Astrometry: 
     P10EwQh  C2017 08 18oIAstrometry%.ok;t=Qta3s9w*xIyGmx,Cste*,4Sevgh;_I5G\F51
     P10EwQh  C2017 08 18/:Ym8\l`OjFMd@lHVl23D*O*S+i'EN89@RheRo)La+RA;xxNfBX;F51
     P10EwQh  C2017 08 18f31/o12C#KdUm)-c2Y$qe3dxaPtsE!_2fo'Q[KT`icSrJp^]O/IOF51
     P10EwQh  C2017 09 13Bg']q!1pVp(C?0NT5):$FHPqhTGwWvtD#1oYBe5mHXf2aAGj5%j]F51
     P10EwQh  C2017 09 13/aVQ#(MTr14Aj0-#U8jAy1hCFG4^VO:aEqisKFk]42'DsaH(8IS#F51
     P10EwQh  C2017 09 13kQ#8?aHnU/:My3REXiYDqWX%2qJ@NoqR.6mV*#@x*s1\iLQhw.,/F51
     P10EwQh  C2017 09 13h`B_db4Z3@h#gx-jr,tkq1/;]:)ZIii7OeP:'tn8qn%JgeyX\0BQF51
     P10EwQh  C2017 10 07G\Z[_I$PyD'mKEg@^]kQpB5AwL+?#RU^g;alk`6rS;rt50W'(/QJF51
     P10EwQh  C2017 10 07'Al$mQwJ^SbKHJq90af#8llHJMP3%:FsmxJq\WZa%*Ysn@_fwwYDF51
     P10EwQh  C2017 10 07y]q)pP)dP*7w\bor?OYyYlr'gWnd.Mba0ZjZdsx;W689Ra1K6EJIF51
     P10EwQh  C2017 10 077BQ$SyC;L+6?lJ*@yw87kDSVpi!@mm=xqpw:fIh9?[cIU?RXnwVGF51
     P10EwQh  C2017 10 29TLj/G]d[N4XB[BCtbX7e3Wh?i\=y]KLMZM177Fe%%-Z:*#il5Z1HF51
     P10EwQh  C2017 10 29kSg4i*4L/`Tj3e[$eF]D-=_7tN]/bI1TyhF]Lm7OEr-1rkUYbnq7F51
     P10EwQh  C2017 10 29v._W294e[ZH^`og,*fX7Q*(-dEU5\RC\7!n*5YeI\#/Q$P8b=JyHF51
     P10EwQh |C2017 10 30U\Us'e.==+y.,Hlu[WDq5.#m^;UUeT$tj3GKxUhoaB#GjoC%'AQp807
     P10EwQh |C2017 10 30OTchoC4L!c=i0hg@W7[Sn(w%EGSov-XdVvbEc.?Rbt8s1sLYIw[%807
     P10EwQh |C2017 10 30v(3k%@ICQy+vI*uU]);0nh\Nj_KeH.x9gr=1#pyrs]nO`+XUMCR!807
     P10EwQh |C2017 10 31hlLnWN/hD[+U_!%^NyBBN\'`7w34*hvop-CM1qwp\L+A^=vfy#Mj807
     P10EwQh |C2017 10 31U:$_][5RQBuX^a)51cL]IG]-dYt=7!-F;e_xFt*RdTAnCRWo6MhZ807
     P10EwQh |C2017 10 31-bwxc^DXJ)1p#;sug'[$Ilt_Mj2;KsWHqta;R1x=[U38N.%/%:4N807
     P10EwQh |C2017 10 31,b33,yNWM_ZDYA:f,l)AHYv%^`*RN29jyLvxUTK:hJtc`o0CjX`J807
     P10EwQh |C2017 11 01/?bI#;w5Tg4Z=f5K8P9J40KDSpWmt@f\iiQf$_-8@$%UPq+ig/F!807
     P10EwQh |C2017 11 01sKy'uVtov;,?*]_cwlU=q4L!+2DLAj';p'Bk7p;heG-p^m3[9hRd807
     P10EwQh |C2017 11 01#%ebk0ifTp'$w#p5N1Wm2d=p1PRK?*ivcU^T?MAsxxuZHdb3AUE`807
     P10EwQh |C2017 11 06s;q#GvB,frou1$:8yg6U?25APQTLaSf4I77p44T,LO=PCVOdl**X807
     P10EwQh |C2017 11 06tKc%Z5f3U6l8-Zc425=P?:`n%RS/e'4N,n=M\r'rd?YEyw322QRk807
     P10EwQh |C2017 11 06J.-Ys4H!uHRjO%UI8TH5A4HLPTrRTBaV4P$6%tT'MEW,TZDb\4)q807
     P10EwQh  C2017 11 0660Gj(TxJ;nOE*e$%t,,s=lMwji3$L*:\,^d`75!+o**J/YDo?=21F51
     P10EwQh  C2017 11 06D/!gBZ9'Nv3g`sXONredacted;=EXHy\1XZwwlbuUcbQwXLRE98qF51
     P10EwQh  C2017 11 06hF4g%6f;!DB[usM]I\14xgl$?8=20hTWA6m-QH+M*G1=Jn=[(o#NF51
     P10EwQh  C2017 11 06svfj.QXb.5)x\j)*uW4!Xr(nj=P_t$3qEWYv6B^%%\aJeEEvZ!T4F51
     P10EwQh 1C2017 11 07s6(c.X#(\jy'GYW]U;4QW^q#^m7_K2lSveS)!C\)jo:(JVD9-Vw$Q62
     P10EwQh 1C2017 11 07Y5Lpt(A-tN]u9jX:3:wW08_4H^MUn%4M::wiBPpFgk_WISj+!(C;Q62
     P10EwQh 1C2017 11 07kSDGIht=\q`$i6u5#@N4D[XfZDcu`.N*/u-QI%4telcVAR3bH`aZQ62
     P10EwQh  C2017 11 22(:Fki`qEcFRno1(iQO,ap^t2vrWNbKtS;5-fZJ3f?\x!OP26!Kd3F51
     P10EwQh  C2017 11 22ia`Irh1w=?8RLY2wlxp(vq.%uo#FZjiu*9Gs$D6C7hppGR=DOhS.F51
     P10EwQh  C2017 11 22j($G(88q3vd4oiX_2oM\?'][ZTcC3K3oO[wAMH.I3B?VUXBJ,YDgF51
     P10EwQh  C2017 11 22%!q_:Lj'usr;iu#m.Ff!D`%PsIr6)MaBlUI6\D/S=$Bl(5(!r)F2F51
     P10EwQh 4C2017 11 22bP,fBoP]kv8:2N_u'VT$H6mIN!o`=yl)VhR,KD(=^nlwiM-CQ/3EE10
     P10EwQh 4C2017 11 22eQH9,qJpl-[`2`*n$BJt,w'))7=(VHPp/Gp3q@xwd8d3-Of'5=bsE10
     P10EwQh 4C2017 11 22Sj(0lX!YPhQl/)jim(TZx;0By5^r68bUQ(0dXy;JbxnQFP+(jFBjE10
     P10EwQh _C2017 11 24.28167200 33 28.218-39 16 56.59         20.3 GUNEOCP568
     P10EwQh _C2017 11 24.28303400 33 28.164-39 16 56.47         20.2 GUNEOCP568
     P10EwQh _C2017 11 24.28421400 33 28.109-39 16 56.39         20.3 GUNEOCP568
     P10EwQh  C2017 12 016[bLM%jO4u1D`iCUm_T7Fv)wq)s;?T#k'\60p1A;qd8'Xx[Ni[NeW85
     P10EwQh  C2017 12 01;Wbfa6'D_rLAb\8sX-EByLTQ-(@BW`7h$O8+0]D(cfjyX=W?brhTW85
     P10EwQh  C2017 12 01JO7DqH*c6-gfELP\q2E7VEIsVB6V:$ed./YJmB`/\V\-h\xD[Gr7W85
     P10EwQh  C2017 12 01C.n]fYt[eT_XvEY`3v\o)%+'#f(u$K)LbJ_dD@ORYbO$A5^.1uWnW85
     P10EwQh  C2017 12 08cO#O1y-6\Yx,c+8l]qT2PO!4]fco4cX=A-NtodVN==mZH+L_W[L-W87
     P10EwQh  C2017 12 08dMun_q(OC6Nq+m(Z0E'jGfp,w+X^p`ZrTsi6OrjM.?DnfL(PK/@LW87
     P10EwQh  C2017 12 08OjYMvk1lQE_r-PH%@ug9?5%F=UKOx0@W]pHHTnZmfgC4FcgW]#7)W87
     P10EwQh  C2017 12 08tFTUvRepcH@fp\tg+)es))]J:t'Q#x1WNBD[DdG:Fu3cE(k(1(R%W87
     P10EwQh KC2017 12 18ZWY6/EG]ci[D3yF'EA:a^2`fXBQ:NW=bhPxwuE4^ho]Un]7mX+.=J04
     P10EwQh KC2017 12 18rH]PDijra[B83?33-L!/1JlHq$S%A%'YUKwV;XxSF=AYJm4VE*G!J04
     P10EwQh KC2017 12 18UZZa[6f7jcm+vk9BbZ!fM5F)5P+\Q17egrbl9R/`7+QP'm0(Y7r%J04
     P10EwQh |C2017 12 22t-/YC:k[%2-_5oQN!;58@C(4S0GE\M?i6y3QDH0VUpk$!t%/q=):807
     P10EwQh |C2017 12 22E=H/emll25(e3/$D@Y:1];+Xn4OxNNov]ZC)0?cuuv_@%3Z6KPvg807
     P10EwQh |C2017 12 22bD!7B*elZ$,-4%pcTFHTAMBUm+nZm86^5@I'T-XfnFEdye2.,:P;807
     P10EwQh |C2017 12 252CGZ#:LmSa3VBh\*Hx!mqeG\QUBE_]1(see^k_SrS,3@bVby:=G8807
     P10EwQh |C2017 12 25o/]pEhKAhdYSlqy+Jq80*Ys:urT8sG0B0m806=QX'd1M60Y`'qq2807
     P10EwQh |C2017 12 25*Dp[C(Of8vXHfvTDWrV+.@IHit4t:ThOr1W!QpR0r,L==yMH-mfV807
     P10EwQh KC2017 12 30oVP)*Hx^6M0+2SUc'6I.Sg-inN0KC@U'JX%bnRrJ7^$FA(9E6F2w291
     P10EwQh KC2017 12 30'UkUepx+%/^^q,kDW(([)_V1R!!RgxYCi4b:gn@FW$_)0PMg2/oH291
     P10EwQh KC2017 12 30Y4'-YfEIU-cvU)v3a[q1C_xR;mUtN///ei)0l8q/4'l0nSldJW-c291
     P10EwQh |C2018 01 03U9%InSwX,t'O#7A;cP)DB:8u`=ccMVBv%vM]83W@c51**N54rW(0807
     P10EwQh |C2018 01 03-hf-+)JX:m.?i5V[Ig!fgJa;_u4qWxXE?e*i=\K5%;E;3*i].PyH807
     P10EwQh |C2018 01 03%gs\?Q[^pf;_)1v.GU#FpAYg%IJhS#6Yj/o0`QHVqcoukbv!fBqa807
     P10EwQh 1C2018 01 068A%c/X@Ek1.aAnli$cSs=(?Y$@yFka^\'!k:A6+RxFMl8=JUJwr,Q62
     P10EwQh 1C2018 01 06,06+0\F3@(nuM.=no;:Ba-91b=/5I%u3pD,'1c%!7h=T\fpPcW]VQ62
     P10EwQh 1C2018 01 06CtRiw1d1'jUgKfm5EngfZ#R*TobkL_Ek4wx.^CcKn)?])3cpyDN,Q62
     P10EwQh |C2018 01 09((!DM')s'ta%w`35)Q`Q4%5qmxhFvR%x.I%5SR=M:v$T/9]:4)Y#807
     P10EwQh |C2018 01 09BMR^YW6A[p14HN;$tpg3S(gBe!Ee'!..TFBe7=F-N4/V*LZ$BH7P807
     P10EwQh |C2018 01 11*YLoZKZ;MB$[iFFZcGgl[PHe)iyQ[O[:U*Ndi-amh*mid16+#K[%807
     P10EwQh |C2018 01 117^.Z79o@NcuX7!w[/^(QhP@RaV]\rCs0,-GEWgt@,2r)G[g)2/Y-807
     P10EwQh |C2018 01 11at=x8yK6L[BZ)A7Jo1AC9_Dt'N`6-mR\1*N0Ud]7`qt(bxwM?yK2807
     P10EwQh |C2018 01 20_o`@CGV+n.gYmojHZ'9tR3nfA+SlrlbX2_YCjN+1-x[QGo2:id(l807
     P10EwQh |C2018 01 20XnFTSSFKFb*2HcUlkaXy_9*`.=Uw']C:Qin*wn0CWnU%1eq#LOVe807
     P10EwQh |C2018 01 20B`PW[(9rKSIo!-loqiLex+w=#i,0/)JiY($;AvANy6O,\x$%KCWV807
     P10EwQh |C2018 01 26@u3tt*M#/p67tRXJs,Ic5Vy34X8W5IR06O0eVgtMX1!0CL])O+S+807
     P10EwQh |C2018 01 26s1D+Fm71]=`H(p5VwmAyWd%nmTne:Gqg2oLYcjy[*G=7tx^;Qp0d807
     P10EwQh |C2018 01 26M3mX4dG3LZO6$(q.P4bAb:%$EO^/:eN'X`;B`bU3v^#gNbq%8%?q807
     P10EwQh |C2018 01 28]?GAN;,VB?=]aWqDv/GwvO_Gld9K^1bW2]_Miob3,Jj,u5)^65f?807
     P10EwQh |C2018 01 28\2^v7vay-s\lF%bohu!lf.A!k%7K:WjQi(MZX4Yea;X-A@VcWU\e807
     P10EwQh |C2018 01 28v7V!([p`LG).tdgbCRI9d04+fw!wR7=(NM]V/Sp[CN0jacmT'#h2807
     P10EwQh |C2018 02 10CegAq$^yRe]ct6Y/kYSswcd9Wm.56tX!SM@kLMWc6QToaE):ZW\M807
     P10EwQh |C2018 02 108:uO1taf6o91`@^q)NI]wd\XU;57h'+='4Nv;lE.#+N;W2iZIgD`807
     P10EwQh |C2018 02 10G;bk,+M8HTLwVl#G-)vd;eDdRBJx?CLGpJKDG[!m^HG?/P;NEOCP807

Station data:
(291) LPL/Spacewatch II  (N31.961626 W111.599100)  US/Arizona.  Observers J.
   V. Scotti, R. S. McMillan. 1.8-m f/2.7 reflector + CCD.
(568) Mauna Kea  (N19.826114 W155.472200)  US/Hawaii.  Observer D. J. Tholen.
   2.24-m University of Hawaii reflector.
(807) Cerro Tololo Observatory, La Serena  (S30.169133 W70.805900)  Chile.
   Observers M. Holman, J. Kavelaars, T. Grav, W. Fraser. Measurer M. Holman.
   4-m Blanco reflector + CCD.
(E10) Siding Spring-Faulkes Telescope South  (S31.273170 E149.070280)
   Australia/NSW.
(F51) Pan-STARRS 1, Haleakala  (N20.707234 W156.255910)  US/Hawaii.
   Observers N. Primak, A. Schultz, S. Watters, J. Thiel, T. Goggia. Measurer
   PS1 Science Consortium. 1.8-m Ritchey-Chrétien + CCD.
(J04) ESA Optical Ground Station, Tenerife  (N28.300922 W16.511830)  Canary
   Islands (Spain).  Observer D. Abreu. Measurers M. Micheli, D. Koschny, E.
   Schwab, M. Busch, A. Knöfel. 1.0-m f/4.4 reflector + CCD.
(Q62) iTelescope Observatory, Siding Spring  (S31.273286 E149.064420)
   Australia/NSW. 0.50-m f/6.8 astrograph + CCD + focal reducer, 0.70-m f/6.6
   astrograph + CCD.
(W85) Cerro Tololo-LCO A  (S30.167404 W70.804810)  Chile.  Observers T.
   Lister, S. Greenstreet, E. Gomez. Measurer T. Lister. 1.0-m f/8
   Ritchey-Chrétien + CCD.
(W87) Cerro Tololo-LCO C  (S30.167454 W70.804680)  Chile.

Orbital elements:  P10EwQh
   Perihelion 2019 Sep 10.567031 +/- 0.0396 TT = 13:36:31 (JD 2458737.067031)
Epoch 2018 Feb 10.0 TT = JDT 2458159.5                        AutoNEOCP
q   6.41771029 +/- 0.000323         (J2000 ecliptic)
H   10.9  G 0.15                    Peri.  325.96678 +/- 0.0048
                                    Node   276.21372 +/- 0.0007
e   1.0016817 +/- 5.08e-5           Incl.  142.63930 +/- 0.00006
From 87 observations 2017 Aug. 18-2018 Feb. 10; mean residual 0".20
Residuals in arcseconds: 
170818 F51  .21+  .16-    171106 F51  .19-  .01+    171225 807  .14-  .14+    
170818 F51  .18+  .21-    171106 F51  .20-  .09+    171225 807  .27-  .11-    
170818 F51  .14-  .13+    171107 Q62  .09+  .22-    171225 807  .04-  .06-    
170913 F51  .39-  .14+    171107 Q62  .43+  .08-    171230 291  .06+  .47+    
170913 F51  .03-  .28+    171107 Q62  .53+  .07+    171230 291  .00   .44+    
170913 F51  .02+  .16+    171122 F51  .20-  .17+    171230 291  .54-  .02+    
170913 F51  .30-  .01-    171122 F51  .19-  .12+    180103 807  .09+  .14-    
171007 F51  .20-  .13-    171122 F51  .06-  .08+    180103 807  .10+  .08-    
171007 F51  .14-  .02-    171122 F51  .07-  .17+    180103 807  .15+  .07-    
171007 F51  .13-  .14-    171122 E10  .18-  .31+    180106 Q62  .24+  .47+    
171007 F51  .17-  .05-    171122 E10  .15-  .32+    180106 Q62  .03-  .26+    
